Weather History for Cross City, FL

Change the Weather History Date:

Thursday, October 27, 2011

  Actual Average Record
Temperature  
Mean Temperature 70 °F 67 °F  
Max Temperature 82 °F 81 °F 89 °F (2010)
Min Temperature 57 °F 54 °F 37 °F (2001)
Degree Days  
Heating Degree Days 0 2  
Month to date heating degree days 23  
Since 1 July heating degree days 23  
Cooling Degree Days 4 4  
Month to date cooling degree days 185  
Year to date cooling degree days 2527  
Growing Degree Days 20 (Base 50)    
Moisture  
Dew Point 61 °F    
Average Humidity 79    
Maximum Humidity 100    
Minimum Humidity 45    
Precipitation  
Precipitation 0.00 in 0.09 in 1.58 in (2006)
Month to date precipitation 3.04  
Year to date precipitation 42.87  
Sea Level Pressure  
Sea Level Pressure 29.94 in    
Wind  
Wind Speed 2 mph (SW)    
Max Wind Speed 10 mph    
Max Gust Speed -    
T = Trace of Precipitation, MM = Missing Value Source: NWS Daily Summary

Daily Weather History Graph

Daily Weather History Graph

Search for Another Location

Airport:

Trip Planner

Search our weather history database for the weather conditions in past years. The results will help you decide how hot, cold, wet, or windy it might be!

Date:

Astronomy

Oct. 27, 2011 Rise Set
Actual Time 7:41 AM EDT 6:50 PM EDT
Civil Twilight 7:17 AM EDT 7:14 PM EDT
Nautical Twilight 6:49 AM EDT 7:42 PM EDT
Astronomical Twilight 6:21 AM EDT 8:10 PM EDT
Moon 8:34 AM EDT (10/27) 7:28 PM EDT (10/27)
Length of Visible Light 11h 57m
Length of Day
11h 08m
New Moon, 1% of the Moon is Illuminated
Oct 27
New Moon
Nov 2
First Quarter
Nov 10
Full
Nov 18
Last Quarter
Nov 25
New

Hourly Weather History & Observations

Time (EDT) Temp. Heat Index Dew Point Humidity Pressure Visibility Wind Dir Wind Speed Gust Speed Precip Events Conditions
12:53 AM 62.1 °F - 60.1 °F 93% 30.00 in - Calm Calm - N/A   Unknown
1:53 AM 63.0 °F - 60.1 °F 90% 29.99 in - Calm Calm - N/A   Unknown
2:53 AM 63.0 °F - 60.1 °F 90% 29.97 in - Calm Calm - N/A   Unknown
3:53 AM 63.0 °F - 60.1 °F 90% 29.96 in - Calm Calm - N/A   Unknown
4:53 AM 64.0 °F - 61.0 °F 90% 29.96 in - Calm Calm - N/A   Unknown
5:53 AM 63.0 °F - 61.0 °F 93% 29.96 in - Calm Calm - N/A   Unknown
6:53 AM 59.0 °F - 57.9 °F 96% 29.96 in - Calm Calm - N/A   Unknown
7:53 AM 57.9 °F - 57.9 °F 100% 29.96 in - Calm Calm - N/A   Unknown
8:53 AM 63.0 °F - 62.1 °F 97% 29.96 in - Calm Calm - N/A   Unknown
9:53 AM 69.1 °F - 64.0 °F 84% 29.97 in - Variable 3.5 mph - N/A   Unknown
10:53 AM 77.0 °F - 64.0 °F 64% 29.97 in - South 9.2 mph - N/A   Unknown
11:53 AM 79.0 °F - 63.0 °F 58% 29.96 in - SSW 6.9 mph - N/A   Unknown
12:53 PM 82.0 °F 82.7 °F 61.0 °F 49% 29.94 in - South 10.4 mph - N/A   Unknown
1:53 PM 82.9 °F 83.2 °F 60.1 °F 46% 29.91 in - South 9.2 mph - N/A   Unknown
2:53 PM 82.0 °F 82.1 °F 59.0 °F 45% 29.89 in - SW 9.2 mph - N/A   Unknown
3:53 PM 81.0 °F 81.6 °F 60.1 °F 49% 29.89 in - SW 8.1 mph - N/A   Unknown
4:53 PM 80.1 °F 80.7 °F 59.0 °F 48% 29.89 in - WSW 10.4 mph - N/A   Unknown
5:53 PM 75.9 °F - 62.1 °F 62% 29.90 in - West 5.8 mph - N/A   Unknown
6:53 PM 73.0 °F - 64.9 °F 76% 29.91 in - West 4.6 mph - N/A   Unknown
7:53 PM 66.9 °F - 64.0 °F 90% 29.92 in - Calm Calm - N/A   Unknown
8:53 PM 63.0 °F - 62.1 °F 97% 29.94 in - Calm Calm - N/A   Unknown
9:53 PM 64.0 °F - 62.1 °F 93% 29.95 in - Calm Calm - N/A   Unknown
10:53 PM 64.0 °F - 63.0 °F 96% 29.95 in - Calm Calm - N/A   Unknown
11:53 PM 64.9 °F - 64.0 °F 97% 29.95 in - Calm Calm - N/A   Unknown